Weather in Strelka-Chunya

Russia / Krasnoyarsk Krai     61°44′22″N   102°48′06″E
temp.,
°C
wind,
m/s
gust,
m/s
humid.,
%
clouds,
%
prec.,
mm/h
press.,
hPa
HPBL,
m
25 february, thu
thu2501:00−36sse0110057 0.0 103419
04:00−37se111004 0.0 103319
07:00−37se111003 0.0 103419
10:00−31ese239521 0.0 1032148
13:00−26se249048 0.0 1030377
16:00−25e479399 0.0 1028406
19:00−27ese5129499 0.0 1028402
22:00−26ese51192100 0.0 1025478
26 february, fri
fri2601:00−26ese61293100 0.0 1023521
04:00−26ese41096100 0.4 1021527
07:00−26ese4896100 0.7 1020302
10:00−24ese4696100 0.1 1020366
13:00−22sse3593100 0.3 1019689
16:00−21sw4792100 0.2 1020972
19:00−23wsw3996100 0.3 1023491
22:00−24sw3798100 0.1 1023200
27 february, sat
sat2701:00−27sw3398100 0.1 102464
04:00−29sw2499100 0.0 102583
07:00−28sw2698100 0.1 1026148
10:00−26sw4796100 0.0 1026336
13:00−24wsw4789100 0.1 1026825
16:00−24wsw4688100 0.1 10271033
19:00−27sw3396100 0.1 102973
22:00−30sw239891 0.0 102921
28 february, sun
sun2801:00−31sw239992 0.0 103022
04:00−32sw239993 0.0 103127
07:00−32sw239997 0.1 103173
10:00−29wsw369699 0.0 1032324
13:00−27wsw469099 0.1 1032663
16:00−27wsw4690100 0.0 1033763
19:00−30wsw2597100 0.1 1034116
22:00−32wsw2399100 0.0 103541
1 march, mon
mon101:00−35wsw2310097 0.1 103525
04:00−37wsw239972 0.0 103524
07:00−38wsw239970 0.0 103635
10:00−33wsw369586 0.0 1034287
13:00−29wsw359291 0.0 1033431
16:00−28w3592100 0.0 1031506
19:00−33wsw12100100 0.0 103119
22:00−35sw1110093 0.0 103119